Regional Weather Roundup
Issued by NWS Midland/Odessa, TX

Skip options and go directly to product.
Home | Oldest Version | Previous Version | Current Version | All | Text Only | Save Text | Print | Product List | Glossary On

Skip product version selection by date and time.   
112
ASUS44 KMAF 032210
RWRMAF
MIDLAND AREA WEATHER ROUNDUP
NATIONAL WEATHER SERVICE MIDLAND TX
400 PM CST TUE MAR 03 2015

...IN SOUTHWEST TEXAS AND SOUTHEAST NEW MEXICO...

CITY           SKY/WX    TMP DP  RH WIND       PRES   REMARKS
ALPINE         PTSUNNY   73  37  26 S22G29    29.87F
ANDREWS        FAIR      57  46  65 CALM      29.82S
ARTESIA        CLOUDY    50  48  93 S8        29.81F
BIG SPRING     CLOUDY   N/A N/A N/A N3        29.83R
CARLSBAD       PTSUNNY   60  41  49 N10       29.80F
DRYDEN           N/A     62  47  57 E6        29.78F
FORT STOCKTON  CLOUDY    70  46  42 VRB6      29.75F
GUAD PASS      NOT AVBL
HOBBS          SUNNY     63  41  45 VRB5      29.82F
MARFA          CLOUDY    70  37  30 S16G28    29.86F
MIDLAND AIRPK  CLOUDY    58  48  69 CALM      29.80F
MIDLAND INTL   CLOUDY    60  47  61 N6        29.79F
ODESSA         CLOUDY    58  47  66 NE7       29.80F
PECOS          CLOUDY    66  44  45 NW8       29.77S
PRESIDIO       CLOUDY    80  40  24 S6        29.73F
SEMINOLE       CLOUDY    62  42  48 NE3       29.82F
SNYDER         CLOUDY    55  47  75 SW3       29.81F
WINK           PTSUNNY   67  41  38 N8        29.76F
$$
...OTHER STATIONS IN TEXAS...

CITY           SKY/WX    TMP DP  RH WIND       PRES   REMARKS
ABILENE        CLOUDY    58  49  72 SW6       29.81F
AMARILLO       CLOUDY    54  39  57 CALM      29.77F
AUSTIN         FOG       57  57 100 S8        29.86S VSB 3/4
BROWNSVILLE    PTSUNNY   77  68  73 SE20      29.83F
CORPUS CHRISTI CLOUDY    64  62  93 NW5       29.84F FOG
DALLAS FTW     DRZL/FOG  51  50  96 S9        29.83F VSB 1
DEL RIO        PTSUNNY   60  50  69 SE7       29.80F
EL PASO        PTSUNNY   60  45  57 W7        29.84F
HOUSTON INT    PTSUNNY   79  63  57 S12G22    29.87F
LUBBOCK        CLOUDY    61  40  45 NW5       29.81S
SAN ANGELO     MOSUNNY   67  51  56 SW7       29.78F
SAN ANTONIO    CLOUDY    59  56  89 E3        29.86F FOG
WACO           FOG       50  50 100 SE3       29.84F VSB<1/4
WICHITA FALLS  NOT AVBL
$$
...OTHER LOCATIONS IN NEW MEXICO...

CITY           SKY/WX    TMP DP  RH WIND       PRES   REMARKS
ALAMAGORDO     CLOUDY    55  46  71 S10       29.86F
ALBUQUERQUE    MOSUNNY   52  29  41 CALM      29.77F
CANNON AFB     CLOUDY    57  42  56 SW14      29.79S
CLOVIS         CLOUDY    55  43  62 SW13G18   29.78S
HOLLOMAN AFB   CLOUDY    57  45  64 W13       29.84S
ROSWELL        CLOUDY    56  43  61 S10       29.80F
RUIDOSO        PTSUNNY   48  32  53 SW31G46   29.84F WCI  39
SANTA FE       MOSUNNY   48  21  34 W12G22    29.78F
TRUTH OR CONSE SUNNY     63  13  14 SW26G35   29.77F
TUCUMCARI      CLOUDY    59  37  44 SW12      29.73F
$$

USA.gov is the U.S. government's official web portal to all federal, state and local government web resources and services.